Location: Smithsonian NASM Public Observatory
(38.8879°N, 77.0185°W)
Time: 15:19:07
(UTC-04:00)

Daily predictions for brighter satellites

Satellite Brightness Start Highest point End
(mag) Time Altitude Azimuth Time Altitude Azimuth Time Altitude Azimuth
Cosmos 2058 Rocket 4.0 19:25:22 10° SE 19:28:56 25° E 19:32:31 10° NE
Cosmos 1606 Rocket 3.8 19:25:44 10° SSE 19:29:53 45° E 19:34:01 10° NNE
Cosmos 1953 Rocket 4.2 19:27:50 10° NNE 19:31:49 34° ENE 19:35:44 10° SE
Cosmos 332 Rocket 3.8 19:28:24 10° SSW 19:33:17 86° ESE 19:38:11 10° NNE
Geosat 4.0 19:28:46 10° SE 19:33:43 65° ENE 19:38:43 10° NNW
ATLAS CENTAUR R/B 4.4 19:20:00 10° NW 19:36:28 50° NNE 19:42:03 10° ESE
Cosmos 389 Rocket 2.5 19:35:09 10° S 19:38:37 57° E 19:42:03 10° NNE
Cosmos 371 Rocket 3.3 19:34:18 10° SSW 19:39:10 82° ESE 19:44:04 10° NNE
Meteor 1-15 Rocket 4.4 19:33:40 10° S 19:39:34 90° SSE 19:45:27 10° N
FENGYUN 3A 3.6 19:39:57 10° SSE 19:45:18 79° ENE 19:50:41 10° N
Cosmos 1707 3.2 19:41:49 10° N 19:45:32 39° E 19:49:13 10° SSE
Cosmos 2369 Rocket 2.6 19:41:46 10° NNW 19:47:24 70° WSW 19:52:56 10° SSE
Cosmos 1656 Rocket 4.5 19:44:16 10° N 19:49:17 31° ENE 19:54:05 11° ESE
Cosmos 1825 Rocket 3.5 19:47:11 10° N 19:51:37 86° E 19:56:03 10° S
Cosmos 2298 Rocket 4.1 19:46:50 10° N 19:52:06 57° ENE 19:57:19 10° SSE
Cosmos 468 Rocket 4.1 19:47:35 10° SSW 19:52:47 82° WNW 19:58:04 10° NNE
Cosmos 841 Rocket 3.8 19:49:15 10° S 19:54:02 41° ESE 19:58:51 10° NNE
OE (NEXTSAT) 4.3 19:51:47 10° WNW 19:55:20 89° NE 19:58:09 15° ESE
USA 229 DEB 3.8 19:48:22 10° NNW 19:55:35 77° NE 20:02:56 10° SE
USA 229 3.8 19:48:29 10° NNW 19:55:41 76° NE 20:03:00 10° SE
Cosmos 1937 Rocket 3.6 19:50:41 10° NNW 19:55:56 60° ENE 20:01:08 10° SSE
Cosmos 2181 Rocket 3.9 19:52:30 10° N 19:58:43 75° E 20:04:50 10° SSE
Cosmos 1340 Rocket 2.8 19:54:55 10° N 19:59:00 80° E 20:03:04 10° SSE
Cosmos 1271 Rocket 3.6 19:59:06 10° SSW 20:02:45 51° WNW 20:06:29 10° N
NOSS 3-1 (C) 4.3 20:02:59 10° NNW 20:10:26 54° NE 20:17:12 16° SE
HJ-1C 3.3 20:07:45 10° SSE 20:11:03 67° ENE 20:14:23 10° N
Cosmos 1356 Rocket 3.8 20:09:00 10° N 20:13:07 43° ENE 20:16:30 14° SE
SL-08 ROCKET BODY 4.3 20:07:55 10° S 20:13:46 82° E 20:19:43 10° N
Cosmos 1763 Rocket 3.4 20:10:57 10° SSW 20:16:02 89° WNW 20:21:13 10° NNE
Cosmos 1378 3.1 20:12:40 10° N 20:16:28 90° SE 20:20:14 10° S
Cosmos 2074 Rocket 4.0 20:10:29 10° S 20:16:34 60° E 20:22:39 10° NNE
Thor Agena Rocket 4.4 20:14:12 10° N 20:19:19 54° WNW 20:24:21 10° SSW
CZ-2D R/B 3.4 20:16:53 18° SE 20:19:29 48° ENE 20:23:10 10° N
Cosmos 540 Rocket 3.9 20:17:56 10° SSE 20:22:34 36° ESE 20:27:13 10° NE
Cosmos 1758 Rocket 4.4 20:18:45 10° NNW 20:23:09 55° W 20:27:31 10° S
Cosmos 1544 3.4 20:23:43 26° SE 20:25:11 39° E 20:28:34 10° NNE
Resurs 1-3 3.9 20:24:24 24° SE 20:26:41 46° ENE 20:30:53 10° N
SJ-6B 3.2 20:23:27 10° S 20:27:28 67° WSW 20:31:27 10° NNW
Meteor 1-24 Rocket 3.8 20:23:56 10° N 20:29:53 64° E 20:35:33 10° SSE
Cosmos 304 Rocket 3.7 20:25:16 10° SSW 20:30:02 84° ESE 20:34:52 10° NNE
Cosmos 482 Debris 3.8 20:28:18 10° WNW 20:31:53 54° SW 20:32:22 45° S
Spot 2 Rocket 3.5 20:35:49 25° SE 20:38:40 59° ENE 20:43:38 10° N
Cosmos 836 Rocket 4.5 20:35:57 10° S 20:41:08 60° ESE 20:46:19 10° NNE
Resurs 01 Rocket 1.5 20:40:30 26° SSE 20:42:57 77° ENE 20:47:23 10° N
GEOS 3 Rocket 3.7 20:37:40 10° NE 20:42:58 53° ESE 20:48:11 10° SSW
Nadezhda 3 Rocket 4.3 20:39:08 10° N 20:45:10 46° ENE 20:47:19 34° SE
Milstar 3 Cent rocket 3.5 20:42:30 10° SSW 20:45:32 18° SSE 20:45:32 18° SSE
USA 186 3.9 20:51:13 15° N 20:51:13 15° N 20:51:42 10° N
Cosmos 2184 Rocket 4.2 20:44:33 10° SSW 20:50:50 76° W 20:57:13 10° N
FALCON 9 R/B 2.2 20:48:43 10° WSW 20:52:02 55° S 20:53:49 39° ESE
Cosmos 1943 Rocket 3.8 20:47:21 10° NW 20:52:16 32° WSW 20:57:11 10° SSW
GP-B 3.0 20:48:42 10° N 20:53:07 68° E 20:54:02 52° SSE
MOS 1-B Rocket 3.9 20:52:11 19° SSE 20:56:56 82° ENE 21:02:43 10° NNW
Cosmos 1610 Rocket 4.5 20:53:05 10° S 20:59:25 88° E 21:05:51 10° N
Cosmos 1125 Rocket 3.5 20:57:16 10° NNW 21:02:32 63° ENE 21:03:09 58° ESE
Cosmos 1812 Rocket 3.5 21:04:33 44° S 21:05:56 88° W 21:10:25 10° N
H-2A R/B 4.3 21:11:13 10° NNE 21:11:13 10° NNE 21:11:14 10° NNE
Envisat 3.1 21:08:43 37° S 21:10:45 75° WSW 21:15:51 10° NNW
Cosmos 1939 Rocket 3.8 21:18:19 40° NNW 21:18:19 40° NNW 21:20:54 10° NNW
COSMOS 2406 3.7 21:13:06 10° SW 21:18:43 61° WNW 21:24:25 10° NNE
Meteor 1-21 Rocket 4.3 21:14:12 10° N 21:19:24 58° NE 21:19:24 58° NE
Cosmos 372 Rocket 3.9 21:15:57 10° NNW 21:21:07 81° NE 21:21:07 81° NE
Cosmos 962 Rocket 4.5 21:35:23 49° SSW 21:37:18 83° W 21:43:43 10° N
ATLAS 2AS CENTAUR R/B 3.8 21:34:49 10° NNW 21:42:05 35° NE 21:42:18 35° NE
NOSS 3-1 (A) 4.5 21:43:34 10° NW 21:51:11 57° WSW 21:53:33 44° SSW
Cosmos 1980 Rocket 4.5 22:39:46 10° N 22:41:06 17° N 22:41:06 17° N
ATLAS 2AS CENTAUR R/B 4.4 23:25:47 10° NW 23:29:43 31° NW 23:29:43 31° NW
